TimeCST,TemperatureF,Dew PointF,Humidity,Sea Level PressureIn,VisibilityMPH,Wind Direction,Wind SpeedMPH,Gust SpeedMPH,PrecipitationIn,Events,Conditions,WindDirDegrees,DateUTC
12:54 AM,28.4,24.8,86,30.46,10.0,ENE,3.5,-,N/A,,Clear,60,2013-01-10 06:54:00
1:54 AM,30.0,24.1,79,30.48,10.0,SE,3.5,-,N/A,,Clear,130,2013-01-10 07:54:00
2:54 AM,30.9,24.1,76,30.49,10.0,ESE,3.5,-,N/A,,Clear,120,2013-01-10 08:54:00
3:54 AM,30.0,24.1,79,30.47,10.0,Calm,Calm,-,N/A,,Clear,0,2013-01-10 09:54:00
4:54 AM,26.1,21.9,84,30.45,10.0,NE,5.8,-,N/A,,Clear,50,2013-01-10 10:54:00
5:54 AM,30.0,23.0,75,30.43,10.0,East,6.9,-,N/A,,Clear,80,2013-01-10 11:54:00
6:54 AM,28.9,23.0,78,30.44,10.0,East,5.8,-,N/A,,Clear,80,2013-01-10 12:54:00
7:54 AM,30.9,24.1,76,30.41,10.0,ENE,9.2,-,N/A,,Clear,70,2013-01-10 13:54:00
8:54 AM,34.0,24.1,67,30.38,10.0,ENE,8.1,-,N/A,,Clear,70,2013-01-10 14:54:00
9:54 AM,37.0,24.1,59,30.35,10.0,East,9.2,-,N/A,,Partly Cloudy,80,2013-01-10 15:54:00
10:54 AM,39.0,24.1,55,30.30,10.0,East,8.1,-,N/A,,Overcast,100,2013-01-10 16:54:00
11:54 AM,42.8,24.8,49,30.22,10.0,East,9.2,-,N/A,,Overcast,90,2013-01-10 17:54:00
12:54 PM,43.0,27.0,53,30.17,10.0,ESE,16.1,25.3,0.00,,Overcast,110,2013-01-10 18:54:00
1:49 PM,41.0,30.2,65,30.12,2.5,ESE,18.4,26.5,0.00,Rain,Light Rain,120,2013-01-10 19:49:00
1:54 PM,39.9,33.1,77,30.14,1.2,ESE,15.0,26.5,0.00,Rain,Light Rain,120,2013-01-10 19:54:00
2:20 PM,37.9,36.0,93,30.11,1.5,ESE,12.7,-,0.05,Rain,Light Rain,120,2013-01-10 20:20:00
2:27 PM,37.9,36.0,93,30.11,1.0,ESE,11.5,-,0.06,Rain,Light Rain,110,2013-01-10 20:27:00
2:37 PM,39.0,37.0,93,30.10,1.0,ESE,12.7,-,0.08,Rain,Light Rain,110,2013-01-10 20:37:00
2:54 PM,39.0,37.0,93,30.12,2.0,SE,17.3,24.2,0.10,Rain,Light Rain,130,2013-01-10 20:54:00
3:02 PM,39.0,37.0,93,30.10,7.0,ESE,12.7,24.2,0.00,Rain,Light Rain,120,2013-01-10 21:02:00
3:54 PM,39.0,37.0,93,30.11,4.0,ESE,10.4,-,0.00,,Overcast,120,2013-01-10 21:54:00
4:21 PM,37.9,37.0,97,30.07,2.5,ESE,10.4,-,0.00,,Overcast,120,2013-01-10 22:21:00
4:32 PM,37.9,37.0,97,30.06,1.8,ESE,9.2,-,0.00,,Overcast,120,2013-01-10 22:32:00
4:50 PM,39.2,37.4,93,30.04,3.0,ESE,10.4,-,0.00,,Overcast,110,2013-01-10 22:50:00
4:51 PM,39.0,37.0,93,30.07,3.0,ESE,10.4,-,0.00,,Overcast,120,2013-01-10 22:51:00
5:36 PM,39.0,37.9,96,30.02,2.5,ESE,9.2,-,0.00,Rain,Light Rain,120,2013-01-10 23:36:00
5:54 PM,39.9,39.0,97,30.03,1.0,ESE,10.4,-,0.00,Rain,Light Rain,120,2013-01-10 23:54:00
6:11 PM,39.9,39.0,97,30.00,1.8,ESE,9.2,-,0.01,Rain,Light Rain,110,2013-01-11 00:11:00
6:29 PM,39.9,39.0,97,29.99,1.2,ESE,10.4,-,0.02,Rain,Light Rain,110,2013-01-11 00:29:00
6:41 PM,39.9,39.9,100,29.98,1.8,ESE,9.2,-,0.05,Rain,Rain,110,2013-01-11 00:41:00
6:54 PM,41.0,39.9,96,29.98,2.5,ESE,6.9,-,0.08,Rain,Light Rain,110,2013-01-11 00:54:00
7:30 PM,41.0,41.0,100,29.93,1.8,ESE,9.2,-,0.04,Rain,Rain,110,2013-01-11 01:30:00
7:54 PM,42.1,41.0,96,29.96,2.5,ESE,9.2,-,0.25,Rain,Heavy Rain,120,2013-01-11 01:54:00
7:59 PM,42.1,41.0,96,29.94,3.0,ESE,10.4,-,0.01,Rain,Rain,120,2013-01-11 01:59:00
8:37 PM,43.0,42.1,97,29.92,5.0,ESE,10.4,-,0.03,Rain,Light Rain,120,2013-01-11 02:37:00
8:54 PM,43.0,42.1,97,29.93,2.0,SE,5.8,-,0.03,Rain,Light Rain,140,2013-01-11 02:54:00
9:02 PM,43.0,42.1,97,29.91,1.2,SE,8.1,-,0.00,Rain,Light Rain,140,2013-01-11 03:02:00
9:24 PM,44.1,43.0,96,29.89,0.8,SE,6.9,-,0.01,,Mist,130,2013-01-11 03:24:00
9:54 PM,45.0,44.1,97,29.88,0.5,SE,9.2,-,0.01,Fog,Fog,130,2013-01-11 03:54:00
10:12 PM,46.4,46.4,100,29.86,1.5,SE,10.4,-,N/A,Rain,Rain,140,2013-01-11 04:12:00
10:26 PM,48.9,48.0,97,29.85,2.5,SSE,10.4,-,0.12,Rain,Rain,150,2013-01-11 04:26:00
10:33 PM,48.9,48.0,97,29.84,5.0,SSE,10.4,-,0.12,Rain,Light Rain,150,2013-01-11 04:33:00
10:54 PM,50.0,48.9,96,29.84,2.0,SSE,9.2,-,0.20,Rain,Heavy Rain,150,2013-01-11 04:54:00
11:07 PM,50.0,48.9,96,29.82,4.0,SE,10.4,-,0.03,Rain,Light Rain,140,2013-01-11 05:07:00
11:54 PM,51.1,50.0,96,29.81,3.0,SSE,12.7,-,0.17,Rain,Rain,150,2013-01-11 05:54:00